Location: Maccacari
(45.1333°N, 11.1333°E)
Time: 19:44:20
(UTC+00:00)

Tiros 1 despin weight - Pass Details

Date: 25 January 2021
Orbit: 593 x 642 km, 48.2° (Epoch: 26 February)

Event Time Altitude Azimuth Distance (km) Brightness Sun altitude
Rises 12:08:14 0° 204° (SSW) 2,898 ? 25.4°
Reaches altitude 10° 12:10:58 10° 189° (S) 1,985 ? 25.3°
Maximum altitude 12:14:27 22° 139° (SE) 1,368 ? 25.2°
Drops below altitude 10° 12:17:54 10° 89° (E) 1,969 ? 25.0°
Sets 12:20:36 0° 74° (ENE) 2,867 ? 24.9°
